Location: L�Ave Maria
(50.7161°N, 1.5911°E)
Time: 13:03:36
(UTC+00:00)

ALOS 2 - Pass Details

Date: 10 July 2020
Orbit: 630 x 632 km, 97.9° (Epoch: 07 August)

Event Time Altitude Azimuth Distance (km) Brightness Sun altitude
Exits shadow 23:42:39 29° 205° (SSW) 1,155 3.5 -17.1°
Maximum altitude 23:44:28 47° 261° (W) 845 3.2 -17.1°
Drops below altitude 10° 23:48:44 10° 336° (NNW) 2,025 6.3 -17.2°
Sets 23:51:01 0° 342° (NNW) 2,938 7.5 -17.2°
